Simultaneous Nadir Overpasses (SNOs) Predictions

Prediction of SNOs between GOES-14 and NPP Satellite Orbit:

Table of predicted SNOs for the next 14.0 days since TLE Epoch: 3/26/2022
Index Date Time (GOES-14) GOES-14 Lat,Lon NPP Lat,Lon Distance(km) Time Diff (sec)
1 03/26/2022 20:42:28 -0.11,-104.46 -1.09,-108.81 495.30 80
2 03/27/2022 20:21:04 -0.12,-104.45 -0.06,-104.28 20.22 80
3 03/30/2022 08:24:07 0.12,-104.53 0.22,-105.02 55.85 80
4 03/31/2022 08:08:01 0.12,-104.54 -0.76,-100.48 461.76 80
5 04/01/2022 20:29:57 -0.12,-104.48 -0.41,-105.79 149.07 80
6 04/02/2022 20:08:33 -0.12,-104.47 0.62,-101.26 366.81 80
7 04/04/2022 08:30:20 0.12,-104.53 0.56,-106.53 227.56 80
8 04/05/2022 08:14:16 0.12,-104.54 -0.47,-102.00 290.13 80
9 04/06/2022 20:36:11 -0.11,-104.51 -0.75,-107.29 317.75 80
10 04/07/2022 20:14:47 -0.12,-104.50 0.29,-102.77 198.05 80
